User: anonymous   Login
Location: Fredericton
(45.9636°N, 66.6431°W)
Time: 11:09:57
(UTC-03:00)
Language:

ISS - Orbit

View from above orbital plane
View from above orbital plane
View from above satellite
View from above satellite

Ground track
Ground track

The orbit data is extracted from the following two-line orbital elements,

1 25544U 98067A   21129.20124546  .00001508  00000-0  35534-4 0  9997
2 25544  51.6445 175.5616 0002888 334.7318 132.6230 15.48989546282551
Epoch (UTC): 09 May 2021 04:49:47
Eccentricity: 0.0002888
inclination: 51.6445°
perigee height: 418 km
apogee height: 421 km
right ascension of ascending node: 175.5616°
argument of perigee: 334.7318°
revolutions per day: 15.48989546
mean anomaly at epoch: 132.6230°
orbit number at epoch: 28255

The dashed part of the orbit path shows where the satellite is in the earth's shadow,  

DLR